sat.trackr.live / text

‹ back to catalog

STARLINK-34994

NORAD 65924 · 2025-225Q

PAYLOAD ACTIVE UNKNOWN

§ Identity

Operator
Country
US
Launch date
2025-10-08
Launch site
AFWTR
Launch vehicle
Mass (kg)
RCS (m²)

Purposes: comms

External: N2YO · Heavens-Above · Gunter

§ Orbital elements

Epoch: 2026-09-20T12:13:50.477664Z

Period
93.85 min
Inclination
53.1597°
Eccentricity
0.0001154
Mean motion
15.34402952 rev/d
Perigee alt
461.9 km
Apogee alt
463.5 km
Semi-major
6,840.8 km
B*
5.6041e-4
RAAN
337.3750°
Arg perigee
69.8333°
Mean anomaly
290.2794°
Rev number
5,428

§ Raw data

STARLINK-349941 65924U 25225Q   26263.50961201  .00018607  00000+0  56041-3 0  99952 65924  53.1597 337.3750 0001154  69.8333 290.2794 15.34402952 54286

JSON: /api/v1/satellites/65924 · /tle

For live sub-satellite position, see the globe view (requires WebGL).

§ Visibility from observer

Set your observer location to see the next 7 days of passes ≥ 10°. The values pass through the URL so the page stays shareable.

No JS? Fill the form by hand. The geolocation button needs JavaScript.